Regional Weather Roundup
Issued by NWS Cleveland, OH

Home | Current Version | Previous Version | Text Only | Print | Product List | Glossary Off
Versions: 1 2 3 4 5 6 7 8 9 10 11 12 13 14 15 16 17 18 19 20 21 22 23 24 25 26 27 28 29 30 31 32 33 34 35 36 37 38 39 40 41 42 43 44 45 46 47 48 49 50

000
ASUS41 KCLE 260810
RWRCLE
OHIO REGIONAL WEATHER ROUNDUP
NATIONAL WEATHER SERVICE CLEVELAND, OH
300 AM EST FRI DEC 26 2014

NOTE: "FAIR" INDICATES FEW OR NO CLOUDS BELOW 12,000 FEET WITH NO
SIGNIFICANT WEATHER AND/OR OBSTRUCTIONS TO VISIBILITY.

OHZ001>008-015>018-024>027-034-035-043-044-260900-
   NORTHWEST OHIO

CITY           SKY/WX    TMP DP  RH WIND       PRES   REMARKS
DEFIANCE       CLEAR     33  29  85 S7        30.15R WCI  27
FINDLAY        CLEAR     32  28  85 S8        30.16R WCI  25
TOLEDO EXPRESS PTCLDY    32  29  88 CALM      30.15S
TOLEDO EXEC    PTCLDY    31  27  85 S5        30.17R WCI  26
LIMA           CLEAR     36  30  79 S8        30.16R
$$

OHZ009>014-019>023-028>033-038-089-260900-
   NORTHEAST OHIO

CITY           SKY/WX    TMP DP  RH WIND       PRES   REMARKS
CLE-HOPKINS    PTCLDY    34  28  79 S8        30.22R WCI  27
CLE-LAKEFRONT  CLEAR     37  29  72 S12       30.20R
CUY CO. ARPT   NOT AVBL
LORAIN-ELYRIA  CLEAR     32  28  85 S8        30.19R WCI  25
ASHTABULA      FAIR      32  27  81 S6        30.21R WCI  26
AKRON-CANTON   MOCLDY    35  28  75 S8        30.20R WCI  29
WOOSTER        CLEAR     32  28  85 S6        30.20R WCI  26
MANSFIELD      CLEAR     31  29  92 S8        30.18R WCI  23
YOUNGSTOWN     CLOUDY    36  28  73 SW8       30.20R
$$

OHZ042-051>053-060>062-070>072-077>081-260900-
  SOUTHWEST OHIO

CITY           SKY/WX    TMP DP  RH WIND       PRES   REMARKS
CINC-COVINGTON CLEAR     34  27  75 CALM      30.20R
CINC-LUNKEN    PTCLDY    25  24  96 CALM      30.24R FOG
HAMILTON       CLEAR     27  25  92 CALM      30.22R
DAYTON         CLEAR     32  29  88 S6        30.19R WCI  26
WRIGHT-PAT AFB CLEAR     29  28  93 S3        30.20R
DAYTON GENERAL CLEAR     32  29  88 S8        30.19R WCI  25
WILMINGTON     CLEAR     31  28  89 S7        30.20R WCI  24
$$

OHZ036-037-039>041-045>050-054>059-063>069-073>076-082>088-260900-
  CENTRAL AND SOUTHEAST OHIO

CITY           SKY/WX    TMP DP  RH WIND       PRES   REMARKS
COLUMBUS       CLEAR     32  28  85 SE5       30.21R WCI  27
OSU AIRPORT    CLEAR     32  28  85 S6        30.20R WCI  26
BOLTON FIELD   CLEAR     31  29  93 MISG      30.21R
RICKENBACK AFB CLEAR     30  27  90 S3        30.21R
NEWARK         CLEAR     30  27  88 CALM      30.21R
MARION         FAIR      31  28  89 S9        30.19R WCI  23
LANCASTER      CLEAR     32  28  85 SE6       30.21S WCI  26
ZANESVILLE     CLEAR     30  26  85 S3        30.22R
NEW PHILLY     CLEAR     33  28  81 CALM      30.23R
$$



USA.gov is the U.S. government's official web portal to all federal, state and local government web resources and services.